Вернуться в каталог

CZ-6A DEB

АктивенPO
NORAD 61363·DEBRIS·🇨🇳 China

Запущен Aug 6, 2024 с Taiyuan Satellite Launch Center

Loading…

Ближайшие Пролёты (ближайшие 24 часа)

TLE

СвежийSource: Space-Track

Эпоха: Sep 13, 2026, 18:30 UTC

1 61363U 24140WC  26256.77112413  .00000850  00000-0  34381-3 0  9992
2 61363  89.0641 269.9158 0037381 178.3375 181.7950 14.26593307105451

Отслеживайте CZ-6A DEB в реальном времени с AllMySat

Download on the App Store